CAPE
0 0 0 0 0 0 0 0 3 65 72 74 85 73 68 130 91 44 256 454 671 651 815 763 782 1139 1147 1048 1043 1044 827 608 542 513 500 391 323 355 235 107 233 54 0 0 0 0 0 0 0
0 0 0 0 0 0 0 0 0 82 92 99 115 91 56 43 414 386 446 723 685 721 852 826 850 1100 1155 1114 1086 1019 735 620 564 536 376 312 307 208 120 102 243 84 0 0 0 0 0 0 0
0 0 0 0 0 0 0 45 147 90 69 43 25 56 57 59 447 343 696 743 785 882 923 994 968 1055 1188 1110 962 969 885 800 734 584 357 332 202 96 74 58 147 14 0 0 0 0 0 0 0
0 0 0 0 0 0 0 101 121 31 17 1 15 3 195 295 405 467 875 803 801 909 982 943 952 1028 1164 1142 1079 1008 921 809 705 586 446 229 109 23 29 23 28 0 0 0 0 0 0 0 0
0 0 0 0 0 0 0 98 67 56 3 0 15 12 131 542 604 829 852 790 783 780 1011 1089 882 961 1141 1025 928 989 880 729 689 683 563 325 48 12 0 0 0 0 0 0 0 0 0 0 5
0 0 0 0 13 68 73 103 68 73 10 0 8 103 215 820 918 780 848 818 743 693 901 929 755 857 968 1051 1037 860 699 671 697 712 588 396 225 143 0 0 0 0 0 0 0 0 0 3 0
0 0 0 13 54 64 113 84 47 51 19 33 58 270 422 875 545 591 452 534 590 803 687 790 779 844 860 892 713 559 538 565 610 601 528 370 225 164 163 144 90 37 55 59 39 36 56 25 7
0 0 2 46 87 44 121 81 43 21 16 84 170 351 727 944 1067 525 679 910 1110 796 722 747 775 760 788 693 470 392 388 395 395 396 247 88 49 58 138 1 141 193 167 133 106 122 52 0 0
0 12 0 8 52 11 51 37 36 2 24 82 158 437 482 752 700 975 920 1139 735 543 493 435 488 501 439 378 382 306 341 303 291 261 58 31 98 90 69 22 113 132 7 3 0 0 0 0 0
0 0 1 0 16 14 8 29 36 90 76 53 37 359 584 931 879 862 859 570 492 425 249 165 210 185 102 47 301 327 284 247 278 240 279 173 171 153 118 33 0 0 0 0 0 0 0 0 0
0 0 0 0 11 2 18 22 125 111 98 49 66 515 696 834 638 662 482 305 186 117 66 27 55 22 2 12 110 74 189 172 168 200 166 193 158 170 224 20 0 0 0 0 0 0 0 0 0
0 0 0 0 0 4 25 80 159 154 71 51 136 626 404 418 397 348 149 24 0 0 0 0 0 0 0 0 0 0 64 130 236 300 370 291 104 5 0 0 0 0 0 0 0 0 0 0 0
0 0 0 0 1 24 65 130 187 167 4 62 295 343 339 355 184 65 0 0 0 1 16 1 0 0 0 2 10 31 100 175 240 326 291 32 3 0 0 0 0 0 0 0 0 0 0 0 0
0 0 0 0 3 44 116 125 148 17 41 156 313 144 132 100 20 0 1 1 40 104 146 78 9 0 0 9 73 82 114 198 329 370 406 138 9 0 0 0 0 0 0 3 0 0 0 0 0
0 0 0 0 3 33 44 10 0 3 52 161 237 123 12 9 0 0 0 47 74 146 212 279 134 81 77 95 78 113 158 169 230 268 236 155 65 10 0 0 1 5 6 4 0 0 0 0 0
0 0 0 0 0 0 0 0 0 31 5 61 190 118 69 54 5 0 6 104 134 149 236 286 254 131 92 64 30 59 32 101 171 143 126 98 50 17 7 2 4 5 2 0 0 0 0 0 0
0 0 0 0 0 0 0 0 0 104 19 0 65 85 128 92 70 20 26 79 154 246 141 186 178 121 75 1 0 42 34 61 79 67 29 34 38 22 4 0 1 1 0 0 0 0 0 0 0
0 0 0 0 0 0 0 0 0 116 85 4 17 39 109 133 103 161 152 129 159 171 121 147 214 151 52 6 38 38 63 45 39 49 26 7 2 0 0 0 0 0 0 0 0 0 0 0 0
0 0 0 0 0 0 0 0 0 0 122 102 68 119 96 116 151 114 169 214 156 131 104 156 171 152 90 101 51 16 14 0 0 0 0 0 0 0 0 0 0 0 0 0 0 0 0 0 0
0 0 0 0 0 0 0 0 0 0 14 102 109 125 137 171 204 248 372 330 322 291 244 60 167 41 23 4 0 0 0 0 0 0 0 0 0 0 0 0 0 0 0 0 0 0 0 0 0
0 0 0 0 0 0 0 0 0 0 0 1 51 76 115 147 285 494 468 214 244 305 264 139 14 0 0 0 0 0 0 0 0 0 0 0 0 0 0 0 0 0 0 0 0 0 0 0 0
1 0 0 0 0 0 0 0 0 0 0 0 0 7 224 321 262 206 111 30 0 1 0 0 0 0 0 0 0 0 0 0 0 0 0 0 0 0 0 0 0 0 0 0 0 0 0 0 0
6 0 0 0 0 0 0 0 0 0 0 0 0 149 222 86 37 25 10 0 0 0 0 0 0 0 0 0 0 0 0 0 0 0 0 0 0 0 0 0 0 0 0 0 0 0 2 4 0
0 0 0 0 0 0 0 0 0 0 0 0 0 8 3 0 9 0 3 0 0 0 0 2 1 0 0 0 0 0 0 0 0 0 0 0 0 0 0 0 0 0 0 0 0 12 24 37 23
0 0 0 12 0 0 0 0 0 0 0 0 0 0 0 0 0 4 3 0 0 2 7 2 0 0 0 0 0 0 0 0 0 0 0 0 0 0 0 0 0 0 0 1 5 15 37 64 32
0 0 0 0 0 0 0 0 0 0 0 0 0 0 0 0 0 0 0 1 0 0 0 0 0 0 0 14 0 0 0 0 0 0 0 0 0 0 0 0 0 0 7 5 20 25 43 91 102
0 0 0 0 0 0 0 0 0 0 0 0 0 0 0 0 0 0 0 0 0 0 0 0 0 5 20 7 0 0 0 0 0 0 0 0 0 0 0 0 0 0 1 14 32 36 41 60 85
0 0 0 0 0 0 0 0 0 0 0 0 0 0 0 0 0 0 0 0 0 0 0 3 8 16 9 2 1 0 0 0 0 0 0 0 0 0 0 0 0 0 6 18 11 6 17 6 28
0 0 0 0 0 0 0 0 0 0 0 0 0 0 0 0 0 0 0 0 4 9 10 10 2 9 0 1 0 0 0 0 0 0 0 0 0 0 0 0 0 0 6 9 3 7 0 0 0
0 0 0 0 0 0 0 0 0 0 0 0 0 0 0 0 0 0 4 16 15 12 13 28 24 0 0 0 0 0 0 0 0 0 0 0 0 0 0 0 0 0 8 9 2 1 1 0 0
CIN
0 0 0 0 0 0 0 0 -15 -70 -64 -62 -76 -46 -78 -49 -61 -63 -25 -17 -16 -19 0 0 -10 0 0 0 0 0 -1 -12 -23 -35 -30 -56 -58 -43 -60 -92 -35 -100 0 0 0 0 0 0 0
0 0 0 0 0 0 0 0 0 -44 -38 -45 -2 -54 -16 -2 -1 -8 -7 -9 -11 -8 0 0 -5 -1 0 0 0 0 -6 -29 -36 -31 -62 -70 -64 -89 -127 -130 -50 -98 0 0 0 0 0 0 0
0 0 0 0 0 0 0 -67 -139 -113 -79 0 0 -1 0 0 -4 -26 -6 0 -1 -2 0 0 -1 -1 0 0 0 -1 -4 -7 -13 -30 -87 -86 -124 -156 -156 -137 -86 -191 0 0 0 0 0 0 0
0 0 0 0 0 0 0 -47 -17 -1 -5 -1 -1 -2 -58 -70 -72 -47 -1 0 -8 -1 0 0 -1 -1 0 0 0 -2 -6 -10 -19 -42 -61 -110 -146 -208 -188 -178 -140 0 0 0 0 0 0 0 0
0 0 0 0 0 0 0 -28 -25 -56 -44 0 -54 -58 -110 -10 -26 -1 -1 0 -8 -5 0 0 0 0 0 0 -3 0 -1 -10 -17 -11 -24 -73 -171 -231 -1 0 0 0 0 0 0 0 0 0 -95
0 0 0 0 -55 -112 -141 -89 -11 -13 -25 0 -70 -132 -92 -1 -6 -16 -1 0 -8 -11 -1 0 -4 -4 -2 0 0 -3 -29 -38 -27 -15 -34 -69 -104 -125 -1 0 0 0 0 0 0 0 0 -54 0
0 0 0 -39 -36 -68 -65 -39 -6 -80 -60 -33 -96 -89 -55 0 -16 -17 -30 -27 -23 -4 -14 -12 -11 -3 -1 0 -13 -68 -76 -66 -52 -47 -53 -83 -113 -118 -102 -107 -123 -129 -99 -94 -99 -71 -85 -99 -38
0 0 -30 -9 -15 -34 -26 -22 -21 -1 -53 -82 -86 -64 -19 -1 -1 -25 -14 -1 0 -9 -23 -25 -14 -2 0 -17 -89 -136 -134 -121 -105 -95 -131 -172 -186 -162 -111 -7 -91 -67 -67 -79 -91 -90 -104 0 0
0 -5 -1 -6 -2 -16 -5 -18 -5 -41 -105 -43 -53 -110 -105 -31 -17 0 0 0 -21 -77 -97 -108 -69 -52 -88 -109 -120 -152 -148 -168 -164 -149 -223 -45 -125 -113 -111 -199 -121 -95 -120 -118 0 0 0 0 0
0 -1 -2 0 -112 -42 -64 -43 -71 -90 -23 -23 -85 -130 -65 -20 -17 -26 -31 -98 -122 -137 -198 -208 -178 -188 -227 -225 -141 -128 -141 -133 -121 -120 -106 -101 -107 -102 -95 -149 0 0 0 0 0 0 0 0 0
0 0 0 0 -31 -5 -30 -53 -125 -50 -18 -16 -164 -124 -85 -46 -80 -85 -131 -171 -196 -215 -233 -271 -267 -286 -61 -194 -177 -187 -144 -131 -123 -114 -114 -97 -102 -81 -52 -89 0 0 0 0 0 0 0 0 0
0 0 0 0 0 -25 -35 -14 -148 -51 -27 -61 -220 -110 -173 -153 -162 -167 -230 -250 0 0 0 0 0 0 0 0 0 0 -128 -119 -89 -70 -68 -64 -81 -20 0 0 0 0 0 0 0 0 0 0 0
0 0 0 0 -29 -14 -19 -34 -73 -27 -28 -247 -157 -138 -192 -173 -227 -290 0 0 0 -17 -54 -212 0 0 0 -56 -64 -28 -31 -78 -20 -11 -30 -83 -30 0 0 0 0 0 0 0 0 0 0 0 0
0 0 0 0 -11 -20 -29 -48 -28 -12 -85 -150 -126 -172 -286 -308 -323 0 -37 -28 -33 -13 -26 -13 -63 0 0 -36 -24 -29 -38 -46 -41 -29 -31 -36 -50 0 0 0 0 0 -1 -4 -2 0 0 0 0
0 0 0 0 -53 -64 -48 -16 0 -81 -85 -128 -147 -160 -171 -130 0 0 0 -24 -23 -25 -26 -11 -14 -14 -73 -54 -37 -40 -41 -37 -29 -42 -34 -36 -23 -23 0 0 -6 -5 -3 -5 0 0 0 0 0
0 0 0 0 0 0 0 0 0 -178 -45 -163 -173 -173 -120 -121 -130 0 -72 -22 -15 -10 -135 -12 -24 -6 -28 -33 -27 -43 -73 -35 -39 -46 -39 -16 -11 -8 -14 -6 -2 -5 -2 0 0 0 0 0 0
0 0 0 0 0 0 0 0 0 -172 -113 0 -191 -135 -106 -120 -64 -89 -75 -39 -15 -198 -6 -39 -41 -15 -6 -2 0 -31 -58 -47 -23 -12 -7 -5 -10 -8 -7 0 -2 -3 0 0 0 0 0 0 0
0 0 0 0 0 0 0 0 0 -203 -142 -138 -134 -107 -88 -83 -42 -30 -22 -26 -99 -28 -32 -113 -50 -17 -13 -13 -14 -13 -10 -8 -10 -7 -24 -22 -4 0 -1 0 0 0 0 0 0 0 0 0 0
0 0 0 0 0 0 0 0 0 -1 -185 -155 -134 -101 -100 -76 -67 -49 -15 -9 -19 -32 -40 -9 -36 -8 -24 -57 -14 -11 -17 0 0 0 0 0 0 0 0 0 0 0 0 0 0 0 0 0 0
0 0 0 0 0 0 0 0 0 0 -115 -210 -155 -134 -108 -99 -76 -148 -193 -197 -178 -139 -85 -30 -14 -56 -55 -43 0 0 0 0 0 0 0 0 0 0 0 0 0 0 0 0 0 0 0 0 0
0 0 0 0 0 0 0 0 0 0 0 -111 -187 -132 -126 -105 -210 -137 -113 -74 -164 -115 -66 -33 -77 0 0 0 0 0 0 0 0 0 0 0 0 0 0 0 0 0 0 0 0 0 0 0 0
-1 0 0 0 0 0 0 0 0 0 0 0 0 -81 -197 -152 -121 -94 -86 -88 -13 -46 0 0 0 0 0 0 0 0 0 0 0 0 0 0 0 0 0 0 0 0 0 0 0 0 0 0 0
-14 0 0 0 0 0 0 0 0 0 0 0 0 -192 -130 -126 -123 -100 -79 0 0 0 0 0 0 0 0 0 0 0 0 0 0 0 0 0 0 0 0 0 0 0 0 0 0 0 0 0 0
0 0 0 0 0 0 0 0 0 0 0 0 0 -115 -121 0 -89 0 -21 -5 0 0 0 -4 -8 0 0 0 0 0 0 0 0 0 0 0 0 0 0 0 0 0 0 0 0 0 0 0 0
0 0 0 -42 0 0 0 0 0 0 0 0 0 0 0 0 0 -24 -6 0 0 -5 -22 -5 0 0 0 0 0 0 0 0 0 0 0 0 0 0 0 0 0 0 0 -1 -1 -3 0 0 0
0 0 0 0 0 0 0 0 0 0 0 0 0 0 0 0 0 0 0 -27 -2 0 0 0 0 0 0 0 0 0 0 0 0 0 0 0 0 0 0 0 0 0 -2 -17 -21 -14 0 0 0
0 0 0 0 0 0 0 0 0 0 0 0 0 0 0 0 0 -3 0 0 0 0 0 0 0 -4 -2 -2 0 0 0 0 0 0 0 0 0 0 0 0 0 0 -1 -15 -26 -10 -1 0 -1
0 0 0 0 0 0 0 0 0 0 0 0 0 0 0 0 0 0 0 0 0 0 -4 -4 0 0 0 0 -1 0 0 0 0 0 0 0 0 0 0 0 0 0 -3 -2 -3 -5 -2 -2 -5
0 0 0 0 0 0 0 0 0 0 0 0 0 0 0 0 0 0 0 0 -13 -9 -4 -1 -11 -9 0 -1 0 0 0 0 0 0 0 0 0 0 0 0 0 0 -3 -3 -1 -4 0 0 0
0 0 0 0 0 0 0 0 0 0 0 0 0 0 0 0 0 0 -4 -3 -3 -4 -3 -2 -6 -1 0 0 0 0 0 0 0 0 0 0 0 0 0 0 0 0 -2 -1 0 0 0 0 0
Wind_Speed
nan nan nan nan nan nan nan nan nan nan nan nan nan nan nan 36 nan nan 32 31 35 27 19 27 34 39 37 36 33 28 23 21 17 13 14 14 16 18 20 20 20 nan nan nan nan nan nan nan nan
nan nan nan nan nan nan nan nan nan nan nan nan 41 nan nan nan 33 42 37 34 23 19 26 33 36 35 34 30 27 23 22 20 16 16 16 17 19 21 24 25 24 nan nan nan nan nan nan nan nan
nan nan nan nan nan nan nan nan 39 nan nan nan nan nan nan nan 32 35 35 31 27 23 30 33 33 30 28 26 22 20 19 16 16 16 19 21 22 nan nan nan 28 nan nan nan nan nan nan nan nan
nan nan nan nan nan nan nan 24 40 nan nan nan nan nan 34 33 30 36 27 20 24 24 27 28 26 25 25 21 18 15 15 15 15 18 21 22 25 nan nan nan nan nan nan nan nan nan nan nan nan
nan nan nan nan nan nan nan nan nan nan nan nan nan nan 32 25 38 50 26 21 23 24 23 23 20 21 18 15 13 11 13 14 17 19 21 24 nan nan nan nan nan nan nan nan nan nan nan nan nan
nan nan nan nan nan nan nan 29 nan nan nan nan nan 17 26 24 21 15 19 23 22 21 19 17 19 17 12 10 9 11 14 17 19 21 24 28 31 32 nan nan nan nan nan nan nan nan nan nan nan
nan nan nan nan nan nan 30 nan nan nan nan nan nan 10 12 20 22 20 21 22 21 18 15 17 16 12 10 9 10 13 16 19 21 23 26 28 31 32 31 31 nan nan nan nan nan nan nan nan nan
nan nan nan nan nan nan 23 nan nan nan nan nan 13 10 14 19 21 17 18 15 15 14 13 13 9 8 7 9 12 16 19 20 24 25 28 nan nan nan 28 nan 30 31 32 33 33 32 nan nan nan
nan nan nan nan nan nan nan nan nan nan nan nan 3 8 15 20 16 15 11 6 6 7 7 8 5 4 7 11 14 17 21 22 24 25 nan nan nan nan nan nan 30 31 nan nan nan nan nan nan nan
nan nan nan nan nan nan nan nan nan nan nan nan nan 14 18 16 14 13 11 10 8 4 0 1 4 6 11 nan 16 18 19 21 23 24 27 27 27 30 33 nan nan nan nan nan nan nan nan nan nan
nan nan nan nan nan nan nan nan 14 14 nan nan nan 19 13 12 11 9 10 10 8 6 nan nan nan nan nan nan 16 nan 20 21 24 26 27 27 29 30 30 nan nan nan nan nan nan nan nan nan nan
nan nan nan nan nan nan nan nan 6 10 nan nan 15 15 11 13 11 10 11 nan nan nan nan nan nan nan nan nan nan nan nan 27 29 25 25 27 30 nan nan nan nan nan nan nan nan nan nan nan nan
nan nan nan nan nan nan nan 2 8 5 nan nan 14 11 13 14 11 nan nan nan nan nan nan nan nan nan nan nan nan nan 24 28 30 27 27 nan nan nan nan nan nan nan nan nan nan nan nan nan nan
nan nan nan nan nan nan 3 5 7 nan nan 12 17 14 14 15 nan nan nan nan nan 9 12 nan nan nan nan nan nan nan 27 29 27 29 30 32 nan nan nan nan nan nan nan nan nan nan nan nan nan
nan nan nan nan nan nan nan nan nan nan nan 20 19 14 nan nan nan nan nan nan nan 11 18 27 29 nan nan nan nan 35 33 29 32 32 34 37 nan nan nan nan nan nan nan nan nan nan nan nan nan
nan nan nan nan nan nan nan nan nan nan nan nan 15 14 nan nan nan nan nan 6 14 20 26 31 32 35 nan nan nan nan nan 26 30 40 43 nan nan nan nan nan nan nan nan nan nan nan nan nan nan
nan nan nan nan nan nan nan nan nan 8 nan nan nan nan 9 nan nan nan nan nan 16 26 34 36 35 36 nan nan nan nan nan nan nan nan nan nan nan nan nan nan nan nan nan nan nan nan nan nan nan
nan nan nan nan nan nan nan nan nan 12 nan nan nan nan 11 12 15 20 19 18 23 27 31 33 31 31 nan nan nan nan nan nan nan nan nan nan nan nan nan nan nan nan nan nan nan nan nan nan nan
nan nan nan nan nan nan nan nan nan nan 13 14 nan 10 nan 15 15 17 22 24 30 33 32 31 31 34 nan 29 nan nan nan nan nan nan nan nan nan nan nan nan nan nan nan nan nan nan nan nan nan
nan nan nan nan nan nan nan nan nan nan nan 7 10 12 15 18 22 23 26 29 30 29 25 nan 30 nan nan nan nan nan nan nan nan nan nan nan nan nan nan nan nan nan nan nan nan nan nan nan nan
nan nan nan nan nan nan nan nan nan nan nan nan nan nan 19 25 29 29 31 30 31 32 31 34 nan nan nan nan nan nan nan nan nan nan nan nan nan nan nan nan nan nan nan nan nan nan nan nan nan
nan nan nan nan nan nan nan nan nan nan nan nan nan nan 26 30 29 32 33 nan nan nan nan nan nan nan nan nan nan nan nan nan nan nan nan nan nan nan nan nan nan nan nan nan nan nan nan nan nan
nan nan nan nan nan nan nan nan nan nan nan nan nan 24 24 nan nan nan nan nan nan nan nan nan nan nan nan nan nan nan nan nan nan nan nan nan nan nan nan nan nan nan nan nan nan nan nan nan nan
nan nan nan nan nan nan nan nan nan nan nan nan nan nan nan nan nan nan nan nan nan nan nan nan nan nan nan nan nan nan nan nan nan nan nan nan nan nan nan nan nan nan nan nan nan nan nan nan nan
nan nan nan nan nan nan nan nan nan nan nan nan nan nan nan nan nan nan nan nan nan nan nan nan nan nan nan nan nan nan nan nan nan nan nan nan nan nan nan nan nan nan nan nan nan nan nan nan nan
nan nan nan nan nan nan nan nan nan nan nan nan nan nan nan nan nan nan nan nan nan nan nan nan nan nan nan nan nan nan nan nan nan nan nan nan nan nan nan nan nan nan nan nan nan nan nan nan 99
nan nan nan nan nan nan nan nan nan nan nan nan nan nan nan nan nan nan nan nan nan nan nan nan nan nan nan nan nan nan nan nan nan nan nan nan nan nan nan nan nan nan nan nan nan nan nan nan nan
nan nan nan nan nan nan nan nan nan nan nan nan nan nan nan nan nan nan nan nan nan nan nan nan nan nan nan nan nan nan nan nan nan nan nan nan nan nan nan nan nan nan nan nan nan nan nan nan nan
nan nan nan nan nan nan nan nan nan nan nan nan nan nan nan nan nan nan nan nan nan nan nan nan nan nan nan nan nan nan nan nan nan nan nan nan nan nan nan nan nan nan nan nan nan nan nan nan nan
nan nan nan nan nan nan nan nan nan nan nan nan nan nan nan nan nan nan nan nan nan nan nan nan nan nan nan nan nan nan nan nan nan nan nan nan nan nan nan nan nan nan nan nan nan nan nan nan nan
Wind_Direction
nan nan nan nan nan nan nan nan nan nan nan nan nan nan nan 236 nan nan 247 251 267 274 286 300 309 317 314 312 303 295 291 291 275 266 269 273 282 286 288 291 290 nan nan nan nan nan nan nan nan
nan nan nan nan nan nan nan nan nan nan nan nan 242 nan nan nan 239 252 250 264 262 276 310 316 314 314 309 303 299 293 284 277 265 262 269 277 281 284 286 286 287 nan nan nan nan nan nan nan nan
nan nan nan nan nan nan nan nan 260 nan nan nan nan nan nan nan 237 231 239 261 310 309 313 315 308 309 305 299 294 283 271 270 268 277 279 284 290 nan nan nan 286 nan nan nan nan nan nan nan nan
nan nan nan nan nan nan nan 277 263 nan nan nan nan nan 236 224 271 260 277 309 311 315 315 310 306 301 297 295 286 279 272 272 276 282 286 290 290 nan nan nan nan nan nan nan nan nan nan nan nan
nan nan nan nan nan nan nan nan nan nan nan nan nan nan 256 260 270 273 299 322 320 314 313 309 297 290 289 286 283 268 266 269 273 281 285 290 nan nan nan nan nan nan nan nan nan nan nan nan nan
nan nan nan nan nan nan nan 251 nan nan nan nan nan 249 257 290 282 293 329 328 317 309 306 299 289 276 273 272 266 275 277 278 286 291 293 291 289 290 nan nan nan nan nan nan nan nan nan nan nan
nan nan nan nan nan nan 238 nan nan nan nan nan nan 295 305 336 333 322 316 317 306 296 288 289 280 265 248 260 274 277 279 283 288 290 290 289 288 290 292 292 nan nan nan nan nan nan nan nan nan
nan nan nan nan nan nan 233 nan nan nan nan nan 291 311 342 342 328 316 308 289 270 271 279 277 257 254 275 286 282 288 291 293 291 292 290 nan nan nan 296 nan 288 283 279 279 279 286 nan nan nan
nan nan nan nan nan nan nan nan nan nan nan nan 292 306 320 324 315 306 303 280 271 264 245 216 229 270 285 288 290 295 298 300 297 295 nan nan nan nan nan nan 292 292 nan nan nan nan nan nan nan
nan nan nan nan nan nan nan nan nan nan nan nan nan 279 305 314 323 319 354 22 36 33 297 350 297 301 287 nan 294 292 290 293 295 294 296 297 299 302 300 nan nan nan nan nan nan nan nan nan nan
nan nan nan nan nan nan nan nan 16 338 nan nan nan 317 302 300 313 343 11 22 14 348 nan nan nan nan nan nan 289 nan 284 286 291 286 286 291 297 301 302 nan nan nan nan nan nan nan nan nan nan
nan nan nan nan nan nan nan nan 329 358 nan nan 332 318 304 327 345 352 7 nan nan nan nan nan nan nan nan nan nan nan nan 288 289 283 283 291 295 nan nan nan nan nan nan nan nan nan nan nan nan
nan nan nan nan nan nan nan 34 324 7 nan nan 328 309 325 329 345 nan nan nan nan nan nan nan nan nan nan nan nan nan 284 276 270 275 288 nan nan nan nan nan nan nan nan nan nan nan nan nan nan
nan nan nan nan nan nan 288 250 307 nan nan 308 330 337 338 342 nan nan nan nan nan 347 317 nan nan nan nan nan nan nan 269 269 270 282 295 292 nan nan nan nan nan nan nan nan nan nan nan nan nan
nan nan nan nan nan nan nan nan nan nan nan 325 337 322 nan nan nan nan nan nan nan 308 293 288 284 nan nan nan nan 262 250 262 251 291 309 297 nan nan nan nan nan nan nan nan nan nan nan nan nan
nan nan nan nan nan nan nan nan nan nan nan nan 317 303 nan nan nan nan nan 313 315 300 293 284 281 279 nan nan nan nan nan 296 319 315 309 nan nan nan nan nan nan nan nan nan nan nan nan nan nan
nan nan nan nan nan nan nan nan nan 236 nan nan nan nan 274 nan nan nan nan nan 297 296 294 286 285 279 nan nan nan nan nan nan nan nan nan nan nan nan nan nan nan nan nan nan nan nan nan nan nan
nan nan nan nan nan nan nan nan nan 201 nan nan nan nan 254 239 224 223 236 255 278 282 284 289 287 286 nan nan nan nan nan nan nan nan nan nan nan nan nan nan nan nan nan nan nan nan nan nan nan
nan nan nan nan nan nan nan nan nan nan 263 283 nan 286 nan 278 261 262 269 276 276 280 288 293 281 274 nan 306 nan nan nan nan nan nan nan nan nan nan nan nan nan nan nan nan nan nan nan nan nan
nan nan nan nan nan nan nan nan nan nan nan 277 306 306 299 288 291 292 290 293 300 299 293 nan 307 nan nan nan nan nan nan nan nan nan nan nan nan nan nan nan nan nan nan nan nan nan nan nan nan
nan nan nan nan nan nan nan nan nan nan nan nan nan nan 303 303 300 292 295 296 291 297 299 298 nan nan nan nan nan nan nan nan nan nan nan nan nan nan nan nan nan nan nan nan nan nan nan nan nan
nan nan nan nan nan nan nan nan nan nan nan nan nan nan 302 298 298 301 303 nan nan nan nan nan nan nan nan nan nan nan nan nan nan nan nan nan nan nan nan nan nan nan nan nan nan nan nan nan nan
nan nan nan nan nan nan nan nan nan nan nan nan nan 308 305 nan nan nan nan nan nan nan nan nan nan nan nan nan nan nan nan nan nan nan nan nan nan nan nan nan nan nan nan nan nan nan nan nan nan
nan nan nan nan nan nan nan nan nan nan nan nan nan nan nan nan nan nan nan nan nan nan nan nan nan nan nan nan nan nan nan nan nan nan nan nan nan nan nan nan nan nan nan nan nan nan nan nan nan
nan nan nan nan nan nan nan nan nan nan nan nan nan nan nan nan nan nan nan nan nan nan nan nan nan nan nan nan nan nan nan nan nan nan nan nan nan nan nan nan nan nan nan nan nan nan nan nan nan
nan nan nan nan nan nan nan nan nan nan nan nan nan nan nan nan nan nan nan nan nan nan nan nan nan nan nan nan nan nan nan nan nan nan nan nan nan nan nan nan nan nan nan nan nan nan nan nan 315
nan nan nan nan nan nan nan nan nan nan nan nan nan nan nan nan nan nan nan nan nan nan nan nan nan nan nan nan nan nan nan nan nan nan nan nan nan nan nan nan nan nan nan nan nan nan nan nan nan
nan nan nan nan nan nan nan nan nan nan nan nan nan nan nan nan nan nan nan nan nan nan nan nan nan nan nan nan nan nan nan nan nan nan nan nan nan nan nan nan nan nan nan nan nan nan nan nan nan
nan nan nan nan nan nan nan nan nan nan nan nan nan nan nan nan nan nan nan nan nan nan nan nan nan nan nan nan nan nan nan nan nan nan nan nan nan nan nan nan nan nan nan nan nan nan nan nan nan
nan nan nan nan nan nan nan nan nan nan nan nan nan nan nan nan nan nan nan nan nan nan nan nan nan nan nan nan nan nan nan nan nan nan nan nan nan nan nan nan nan nan nan nan nan nan nan nan nan